Weather History for EIKN - March, 2013

Change the Weather History Date:

Friday, March 15, 2013

  Actual Average Record
Temperature  
Mean Temperature 38 °F -  
Max Temperature 44 °F - - ()
Min Temperature 33 °F - - ()
Degree Days  
Heating Degree Days 26    
Moisture  
Dew Point 35 °F    
Average Humidity 84    
Maximum Humidity 100    
Minimum Humidity 61    
Precipitation  
Precipitation 0.04 in - - ()
Sea Level Pressure  
Sea Level Pressure 29.43 in    
Wind  
Wind Speed 10 mph ()    
Max Wind Speed 21 mph    
Max Gust Speed 41 mph    
Visibility 7.1 miles    
Events Rain , Hail    
T = Trace of Precipitation, MM = Missing Value Source: Averaged Metar Reports

Daily Weather History Graph

Daily Weather History Graph

Search for Another Location

Airport or City:

Trip Planner

Search our weather history database for the weather conditions in past years. The results will help you decide how hot, cold, wet, or windy it might be!

Date:

Astronomy

Mar. 15, 2013 Rise Set
Actual Time 6:49 AM GMT 6:39 PM GMT
Civil Twilight 6:14 AM GMT 7:14 PM GMT
Nautical Twilight 5:33 AM GMT 7:56 PM GMT
Astronomical Twilight 4:50 AM GMT 8:39 PM GMT
Moon 7:54 AM GMT (3/15) 11:23 PM GMT (3/15)
Length of Visible Light 13h 00m
Length of Day
11h 49m
Waxing Crescent, 14% of the Moon is Illuminated
Mar 15
Waxing Crescent
Mar 19
First Quarter
Mar 27
Full
Apr 3
Last Quarter
Apr 10
New

Hourly Weather History & Observations

Time (GMT) Temp. Windchill Dew Point Humidity Pressure Visibility Wind Dir Wind Speed Gust Speed Precip Events Conditions
12:00 AM 40 °F - 39 °F 95% 29.62 in - SSW 13.4 mph - -  
6:00 AM 38 °F - 37 °F 93% 29.49 in 19 mi WSW 8.9 mph - - Rain Light Rain Showers
6:00 AM 37.4 °F 30.8 °F 37.4 °F 100% 29.44 in 6.2 mi WSW 9.2 mph - N/A   Scattered Clouds
7:00 AM 35.6 °F 31.7 °F 35.6 °F 100% 29.44 in 6.2 mi SW 4.6 mph - N/A   Scattered Clouds
7:30 AM 33.8 °F 29.6 °F 33.8 °F 100% 29.44 in 6.2 mi SW 4.6 mph - N/A   Partly Cloudy
8:00 AM 37.4 °F 30.3 °F 33.8 °F 87% 29.44 in 6.2 mi WSW 10.4 mph - N/A   Partly Cloudy
8:30 AM 37.4 °F 30.8 °F 35.6 °F 93% 29.44 in 6.2 mi WSW 9.2 mph - N/A Rain Light Rain Showers
9:00 AM 35.6 °F 27.5 °F 33.8 °F 93% 29.44 in 6.2 mi WSW 11.5 mph - N/A   Partly Cloudy
9:30 AM 39.2 °F 33.0 °F 37.4 °F 93% 29.44 in 6.2 mi SW 9.2 mph - N/A   Partly Cloudy
10:00 AM 37.4 °F 30.8 °F 35.6 °F 93% 29.44 in 6.2 mi SSW 9.2 mph - N/A   Partly Cloudy
10:30 AM 41.0 °F 33.1 °F 35.6 °F 81% 29.44 in 6.2 mi WSW 15.0 mph - N/A   Partly Cloudy
11:00 AM 42.8 °F 35.8 °F 35.6 °F 76% 29.42 in 6.2 mi WSW 13.8 mph - N/A   Scattered Clouds
11:30 AM 39.2 °F 29.3 °F 35.6 °F 87% 29.44 in 1.7 mi West 20.7 mph 41.4 mph N/A Rain Light Rain Showers
12:00 PM 37 °F - 33 °F 81% 29.47 in 22 mi WSW 8.9 mph - - Hail Light Hail Showers
12:00 PM 37.4 °F 30.8 °F 33.8 °F 87% 29.42 in 6.2 mi WSW 9.2 mph - N/A   Scattered Clouds
12:30 PM 41.0 °F 35.8 °F 37.4 °F 87% 29.42 in 6.2 mi SSW 8.1 mph - N/A   Scattered Clouds
1:00 PM 42.8 °F 34.8 °F 32.0 °F 66% 29.42 in 6.2 mi WSW 17.3 mph - N/A   Scattered Clouds
1:30 PM 44.6 °F 37.8 °F 32.0 °F 61% 29.39 in 6.2 mi WSW 15.0 mph - N/A   Mostly Cloudy
2:00 PM 42.8 °F 34.0 °F 33.8 °F 70% 29.39 in 6.2 mi WSW 20.7 mph - N/A   Mostly Cloudy
2:30 PM 41.0 °F 32.2 °F 30.2 °F 65% 29.39 in 6.2 mi West 18.4 mph - N/A   Mostly Cloudy
3:00 PM 42.8 °F 35.1 °F 30.2 °F 61% 29.39 in 6.2 mi West 16.1 mph - N/A   Scattered Clouds
3:30 PM 39.2 °F 32.0 °F 35.6 °F 87% 29.39 in 6.2 mi NW 11.5 mph - N/A Rain Light Rain Showers
4:00 PM 39.2 °F 35.0 °F 33.8 °F 81% 29.36 in 6.2 mi WNW 5.8 mph - N/A   Mostly Cloudy
4:30 PM 39.2 °F 35.0 °F 33.8 °F 81% 29.36 in 6.2 mi West 5.8 mph - N/A   Mostly Cloudy
5:00 PM 39.2 °F 32.0 °F 33.8 °F 81% 29.36 in 6.2 mi West 11.5 mph - N/A   Mostly Cloudy
6:00 PM 36 °F - 33 °F 86% 29.40 in 19 mi NNW 6.7 mph - - Rain Light Rain Showers